TimeCDT,TemperatureF,Dew PointF,Humidity,Sea Level PressureIn,VisibilityMPH,Wind Direction,Wind SpeedMPH,Gust SpeedMPH,PrecipitationIn,Events,Conditions,WindDirDegrees,DateUTC
12:53 AM,55.0,48.0,77,30.30,10.0,ESE,6.9,-,N/A,,Clear,110,2013-09-17 05:53:00
1:53 AM,53.1,48.0,83,30.30,10.0,ESE,6.9,-,N/A,,Clear,110,2013-09-17 06:53:00
2:53 AM,52.0,48.0,86,30.28,10.0,East,8.1,-,N/A,,Clear,100,2013-09-17 07:53:00
3:53 AM,52.0,48.0,86,30.27,10.0,ESE,6.9,-,N/A,,Partly Cloudy,110,2013-09-17 08:53:00
4:53 AM,52.0,48.9,89,30.25,10.0,East,5.8,-,N/A,,Partly Cloudy,100,2013-09-17 09:53:00
5:53 AM,52.0,48.9,89,30.25,10.0,ESE,5.8,-,N/A,,Clear,110,2013-09-17 10:53:00
6:53 AM,53.1,50.0,89,30.25,10.0,ESE,3.5,-,N/A,,Mostly Cloudy,120,2013-09-17 11:53:00
7:53 AM,53.1,50.0,89,30.26,10.0,East,4.6,-,N/A,,Clear,90,2013-09-17 12:53:00
8:53 AM,55.9,52.0,87,30.25,10.0,ESE,6.9,-,N/A,,Partly Cloudy,120,2013-09-17 13:53:00
9:53 AM,59.0,53.1,81,30.24,10.0,ESE,6.9,-,N/A,,Scattered Clouds,120,2013-09-17 14:53:00
10:53 AM,63.0,54.0,72,30.23,10.0,SSE,8.1,-,N/A,,Partly Cloudy,160,2013-09-17 15:53:00
11:53 AM,64.9,55.0,70,30.22,10.0,SSE,5.8,-,N/A,,Overcast,150,2013-09-17 16:53:00
12:53 PM,66.9,57.0,70,30.19,10.0,SE,4.6,-,N/A,,Overcast,140,2013-09-17 17:53:00
1:53 PM,68.0,57.9,70,30.17,10.0,SSE,4.6,-,N/A,,Overcast,150,2013-09-17 18:53:00
2:53 PM,69.1,59.0,70,30.14,10.0,SSE,6.9,-,N/A,,Overcast,160,2013-09-17 19:53:00
3:51 PM,69.8,60.8,73,30.13,10.0,SSE,10.4,-,N/A,,Overcast,160,2013-09-17 20:51:00
3:53 PM,69.1,60.1,73,30.12,10.0,SSE,8.1,-,N/A,,Overcast,160,2013-09-17 20:53:00
4:20 PM,68.0,60.8,78,30.12,10.0,South,10.4,-,N/A,,Overcast,170,2013-09-17 21:20:00
4:35 PM,68.0,60.8,78,30.12,10.0,South,9.2,-,N/A,,Overcast,170,2013-09-17 21:35:00
4:53 PM,68.0,60.1,76,30.12,10.0,South,6.9,-,N/A,,Overcast,170,2013-09-17 21:53:00
5:00 PM,68.0,60.8,78,30.12,10.0,SSE,6.9,-,N/A,,Overcast,150,2013-09-17 22:00:00
5:53 PM,68.0,60.1,76,30.10,10.0,SSE,8.1,-,N/A,,Unknown,150,2013-09-17 22:53:00
6:16 PM,68.0,60.8,78,30.10,10.0,SSE,9.2,-,N/A,,Overcast,150,2013-09-17 23:16:00
6:53 PM,68.0,59.0,73,30.09,10.0,SSE,9.2,-,N/A,,Overcast,160,2013-09-17 23:53:00
7:53 PM,66.9,57.9,73,30.08,10.0,SE,8.1,-,N/A,,Overcast,140,2013-09-18 00:53:00
8:53 PM,66.9,57.9,73,30.07,10.0,SSE,5.8,-,N/A,,Overcast,150,2013-09-18 01:53:00
9:16 PM,66.2,59.0,78,30.07,10.0,SE,6.9,-,N/A,,Overcast,140,2013-09-18 02:16:00
9:53 PM,66.9,59.0,76,30.08,10.0,SSE,6.9,-,N/A,,Overcast,160,2013-09-18 02:53:00
10:53 PM,66.9,60.1,79,30.08,10.0,South,8.1,-,N/A,,Overcast,170,2013-09-18 03:53:00
11:31 PM,64.4,60.8,88,30.08,10.0,SSE,4.6,-,N/A,,Scattered Clouds,160,2013-09-18 04:31:00
11:53 PM,64.9,60.1,84,30.07,9.0,SSE,5.8,-,N/A,,Mostly Cloudy,160,2013-09-18 04:53:00